Погода Павловский Посад

Погода Павловский Посад : погода сейчас, прогноз погоды и архив. Всё, что Вы хотите узнать о погоде Павловский Посад!

Хотите узнать прогноз погоды Павловский Посад? Тогда Вам сюда: Погода Павловский Посад

Поиск расширенной информации на нашем сайте:

Другие новости

Новости СМИ2

Главная страница сайта

Новости сайта

03.07.2017

Напоминаем, что на нашем специализированном сайте Метеоцентр.Азия вы можете получить высокодетализированные автоматические прогнозы погоды по пунктам России, СНГ и мира в авиационном формате (включающие направление и скорость ветра, видимость, явления погоды, количество и форму облачности, нижнюю и верхнюю границу облачности).

Рекомендуем: программа для просмотра youtube

Погода Павловский Посад - сегодня

Время (UTC), дата Ветер
(°,м/с) 
Видим.   Явления Облачность Т
(°С)
Тd
(°С)
f(%) Тe
(°С)
Pmin
(гПа)
dP
(гПа)
Po
(мм)
O2
(г/м3)
Тmin Tmax R s Состояние
почвы
18 18.01.18 130 (ЮВ) 4000 м  слаб. ливневой снег  10/10 600 м кучево-дожд. 
[Cb cap]
-4.5 -6.3 87 -7  1012.4  0.3  746  306    -4.5     
21 18.01.18 140 (ЮВ) 10 км  в посл. час ливневой снег  10/10 600 м кучево-дожд. 
[Cb cap]
-4.2 -7.4 78 -6  1013.4  747  307           
00 19.01.18 120 (ЮВ) 10 км  {ливн. осадки}  10/10 600 м кучево-дожд. 
[Cb cap]
-4.4 -8.6 72 -7  1013.9  0.5  748  307           
03 19.01.18 120 (ЮВ) 10 км    9/9 1000 м кучево-дожд. 
[Cb cap]
-6.4 -8 88 -10  1014  748  309  -6.4    0.8     
06 19.01.18 120 (ЮВ) 10 км    9/0 верхняя 
[Ci ing]
-9.1 -16.5 55 -9  1016.2  1.8  749  314  -9.6    0.2  11  равномерный
сухой снег
100% 
09 19.01.18 130 (ЮВ) 10 км    9/0 верхняя 
[Ci ing]
-9.2 -16 58 -11  1018.2  750  314           
12 19.01.18 130 (ЮВ) 10 км    9/0 верхняя 
[Cs]
-7.9 -17.2 47 -12  1017.8  -0.3  750  313           
15 19.01.18 110 (В) 10 км    9/0 верхняя 
[Ci fib]
-9.4 -19.2 45 -12  1018.1  0.2  750  315           
18 19.01.18 130 (ЮВ) 10 км    9/0 верхняя 
[Ci fib]
-9.4 -19.2 45 -12  1017.7  -0.4  750  314    -7.9       
21 19.01.18 110 (В) 10 км    6/0 верхняя 
[Ci fib]
-10.7 -19.1 50 -14  1018  0.1  750  316           
00 20.01.18 070 (В) 10 км    8/0 верхняя 
[Ci fib]
-11.7 -17.9 60 -14  1016.4  -1.6  749  317           
03 20.01.18 080 (В) н/о    н/о 
-11.2 -14 80 -14  1015.2  -0.9  748  316  -12.1         
06 20.01.18 100 (В) 4000 м  слаб. снег  10/10 300 м 
[Frnb|Ns]
-10.8 -12.1 90 -14  1014.4  -1  748  315  -11.7    0.6  11  равномерный
сухой снег
100% 
09 20.01.18 130 (ЮВ) 10 км  слаб. снег  10/0 средняя 
[As trans]
-9.4 -11.9 82 -11  1013.8  -0.4  747  313           
12 20.01.18 110 (В) 4000 м  слаб. снег  10/0 средняя 
[As op]
-8.2 -9.6 90 -11  1012.5  -1.2  746  311           
15 20.01.18 120 (ЮВ) 4000 м  слаб. снег  10/0 средняя 
[As op]
-8.3 -10.2 86 -11  1012.3  -0.2  746  311         
18 20.01.18 120 (ЮВ) 4000 м  слаб. снег  10/10 300 м 
[Frnb|Ns]
-8.4 -10.3 86 -11  1011.7  -0.6  746  311    -8.2     
21 20.01.18 100 (В) 10 км  слаб. снег  10/10 300 м 
[Frnb|Ns]
-8.5 -10.4 86 -10  1011.3  -0.5  745  311           
00 21.01.18 090 (В) 10 км  в посл. час снег  10/10 300 м 
[Frnb|Ns]
-8.4 -9.9 89 -10  1011  -0.3  745  311           
03 21.01.18 130 (ЮВ) 10 км  в посл. час снег  10/10 300 м 
[Frnb|Ns]
-5.8 -6.9 92 -7  1010.4  -0.4  745  307  -8.5       
06 21.01.18 140 (ЮВ) 10 км  {снег}  10/10 600 м 
[Sc]
-3.9 -5.1 91 -5  1010.6  0.3  745  305  -8.5    13  равномерный
сухой снег
100% 
09 21.01.18 130 (ЮВ) 10 км    10/10 600 м 
[Sc]
-2.7 -4 91 -4  1010.8  0.5  745  304           
12 21.01.18 100 (В) 10 км    10/10 600 м 
[Sc]
-2.3 -4.2 87 -2  1010.2  -0.6  745  303           
15 21.01.18 080 (В) 10 км  слаб. ливневой снег  10/10 600 м кучево-дожд. 
[Cb cap]
-2.9 -4.6 88 -2  1010.1  -0.2  745  304      0.2     
18 21.01.18 040 (СВ) 10 км  {ливн. осадки}  10/10 600 м 
[Sc]
-3.7 -4.8 92 -3  1009  -1  744  304    -2.3  0.0     
Время (UTC), дата Ветер
(°,м/с) 
Видим.   Явления Облачность Т
(°С)
Тd
(°С)
f(%) Тe
(°С)
Pmin
(гПа)
dP
(гПа)
Po
(мм)
O2
(г/м3)
Тmin Tmax R s Состояние
почвы

Для получения пояснительной информации подведите курсор к названию столбца.

ПОГОДА Павловский Посад - архив

Всё, что Вы хотите узнать о погоде Павловский Посад - удобно и подробно!

Выберите нужную дату (начиная с 1 января 2015* года) и нажмите кнопку "Найти".
Будут отображены архивные сводки погоды по пункту Павловский Посад, начиная с указанной даты.


Отображать данные в формате CSV (для использования в таблицах Excel)


Внимание! Наш архив погоды предназначен исключительно для личного некоммерческого использования в познавательных целях. Если Вам необходимы официальные справки о состоянии погоды (для производственных, юридических, коммерческих и т.п. целей), обращайтесь в органы Росгидромета.

*Примечание: данная дата относится к архиву по метеостанциям СССР (Россия, СНГ, Балтия).
Архив по метеостанциям Зарубежной Европы и Азии (кроме Китая) хранится 10 дней, по другим регионам земного шара (Китай, Африка, Америка, Австралия, Океания) - 1 день.

Павловский Посад - район местоположения метеостанции


Название, широта, долгота, высота метеостанции:
Павловский Посад 55.8°ш. 38.7°д. 135 м над ур. моря [Российская Федерация]

Дополнительная информация

В oтличие oт бoльшинства пoгoдных сайтoв мы публикуем пoдрoбную метеoинфoрмацию в детальнoм прoфессиoнальнoм фoрмате.

Характеристики температуры и влажнoсти вoздуха измеряются на высoте 2 м в тени вдали oт зданий и деревьев.
Скoрoсть ветра измеряется на высoте 10 м (на урoвне рoста челoвека скoрoсть ветра ниже в 1.5-2 раза). Если метеoстанция нахoдится в гoрoде или в лесу, тo скoрoсть ветра занижена на 2-4 м/с пo сравнению с oткрытым местoм. Скoрoсть ветра над акватoриями крупных рек и oзёр, а также на вершинах хoлмoв на 2-5 м/с выше, чем в oбычных услoвиях.
Атмoсфернoе давление в разных тoчках местнoсти мoжет значительнo oтличаться oт давления на метеoстанции, в зависимoсти oт услoвий рельефа (при пoдъёме на 10 м давление пoнижается примернo на 1 мм рт.ст.).